Regional Weather Roundup
Issued by NWS Cleveland, OH

Home | Current Version | Previous Version | Text Only | Print | Product List | Glossary Off
Versions: 1 2 3 4 5 6 7 8 9 10 11 12 13 14 15 16 17 18 19 20 21 22 23 24 25 26 27 28 29 30 31 32 33 34 35 36 37 38 39 40 41 42 43 44 45 46 47 48 49 50

000
ASUS41 KCLE 290100
RWRCLE
OHIO REGIONAL WEATHER ROUNDUP
NATIONAL WEATHER SERVICE WILMINGTON, OH
900 PM EDT FRI APR 28 2017

NOTE: "FAIR" INDICATES FEW OR NO CLOUDS BELOW 12,000 FEET WITH NO
SIGNIFICANT WEATHER AND/OR OBSTRUCTIONS TO VISIBILITY.

OHZ001>008-015>018-024>027-034-035-043-044-290200-
   NORTHWEST OHIO

CITY           SKY/WX    TMP DP  RH WIND       PRES   REMARKS
DEFIANCE       LGT RAIN  52  49  89 NE3       29.92F
FINDLAY        RAIN      55  49  80 E8        29.91F
TOLEDO EXPRESS LGT RAIN  53  52  96 CALM      29.94F
TOLEDO EXEC    LGT RAIN  56  52  86 SE7       29.95F
LIMA           LGT RAIN  55  52  89 SE17      29.87F
$$

OHZ009>014-019>023-028>033-038-089-290200-
   NORTHEAST OHIO

CITY           SKY/WX    TMP DP  RH WIND       PRES   REMARKS
CLE-HOPKINS    LGT RAIN  58  50  75 SE5       29.99F
CLE-LAKEFRONT  CLOUDY    60  49  66 S5        29.96F
CUY CO. ARPT   CLOUDY    59  52  77 SE8         N/A
LORAIN-ELYRIA  LGT RAIN  56  49  77 SW5       29.99F
ASHTABULA      MOCLDY    58  51  78 S10       30.03S
AKRON-CANTON   CLOUDY    60  48  64 E9        30.03R
WOOSTER        NOT AVBL
MANSFIELD      RAIN      56  52  86 SE12      29.96F
YOUNGSTOWN     CLOUDY    59  49  69 NE9       30.03R
$$

OHZ042-051>053-060>062-070>072-077>081-290200-
  SOUTHWEST OHIO

CITY           SKY/WX    TMP DP  RH WIND       PRES   REMARKS
CINC-COVINGTON CLOUDY    68  61  78 SE13      29.82F THUNDER
CINC-LUNKEN    LGT RAIN  66  64  93 E6        29.85R
HAMILTON       TSTM      62  60  93 E9        29.86F
DAYTON         TSTM      57  55  94 E20G35    29.92R FOG
WRIGHT-PAT AFB TSTM      59  59 100 E9        29.87F
DAYTON GENERAL LGT RAIN  58  56  93 NE12      29.89F
WILMINGTON     TSTM      60  58  92 NE18G28   29.87S
$$

OHZ036-037-039>041-045>050-054>059-063>069-073>076-082>088-290200-
  CENTRAL AND SOUTHEAST OHIO

CITY           SKY/WX    TMP DP  RH WIND       PRES   REMARKS
COLUMBUS       TSTM      61  55  81 N13G21    29.95R
OSU AIRPORT    TSTM      58  55  90 NE8       29.97R FOG
BOLTON FIELD   NOT AVBL
RICKENBACK AFB NOT AVBL
NEWARK         LGT RAIN  63  51  65 VRB6      29.94S
MARION         LGT RAIN  57  52  83 SE6       29.98R
LANCASTER      CLOUDY    68  51  54 N15       29.93R
ZANESVILLE     CLOUDY    67  47  48 N7        29.94F
NEW PHILLY     CLOUDY    64  48  56 N8        30.01R
$$



USA.gov is the U.S. government's official web portal to all federal, state and local government web resources and services.